[[{"header":{"parameterUnit":"m.s-1","parameterCategory":1,"la1":30.2991,"la2":30.254,"lo1":-89.0895,"lo2":-89.0444,"dy":0.0017,"dx":0.0017,"nx":28,"ny":28,"refTime":"2023-08-01T21:00:00:Z","depth":0,"parameterNumber":2,"parameterNumberName":"U-component_of_WINDS"},"data":[0,0,0,0,0,0,0,0,0,0,0,0,0,0,0,0,0,0,0,0,0,0,0,0,0,0,0,0,0,0,0,0,0,0,0,0,0,0,0,0,0,0,0,0,0,0,0,0,0,0,0,0,0,0,0,0,0,0,2.0514,2.0513,0,2.0477,2.0476,2.0476,2.0367,2.0365,2.0363,2.036,2.0325,2.0326,2.0327,0,0,0,0,0,0,0,0,0,0,0,0,0,2.0494,2.0495,2.0514,2.0513,2.0513,2.0477,2.0476,2.0476,2.0368,2.0365,2.0362,2.0359,2.0325,2.0326,2.0328,0,0,0,0,0,0,0,0,0,0,0,0,0,2.0485,2.0495,2.0514,2.0455,2.0449,2.0477,2.0476,2.0476,2.0369,2.0365,2.0361,2.0358,2.0324,2.0326,2.0328,2.0411,0,0,2.0334,2.0334,0,0,0,0,0,0,0,0,2.0485,2.0485,2.0464,2.0459,2.0452,2.0423,2.0456,2.0454,2.0369,2.0399,2.036,2.0356,2.0361,2.0359,2.036,2.0409,2.0408,2.0334,2.0335,2.0336,2.0336,0,0,0,0,0,0,0,2.0486,2.0486,2.0499,2.0464,2.0457,2.0431,2.0426,2.0455,2.04,2.0396,2.0388,2.0385,2.0357,2.0359,2.0359,2.0407,2.0334,2.0335,2.0337,2.0337,2.0524,2.0528,0,0,0,0,0,0,2.0495,2.0488,2.05,2.0498,2.046,2.0434,2.0428,2.0436,2.04,2.0391,2.0388,2.038,2.0357,2.0356,2.0357,2.0453,2.0336,2.0337,2.0339,2.052,2.0525,2.0529,0,0,0,0,0,0,2.0495,2.0497,2.0502,2.0491,2.0489,2.0438,2.0448,2.0437,2.0439,2.0394,2.0384,2.04,2.0354,2.0354,2.0398,2.045,2.0338,2.034,2.0516,2.0522,2.0527,2.0645,0,0,0,0,0,0,2.0495,2.0498,2.0528,2.0492,2.049,2.0543,2.0451,2.0439,2.0442,2.0431,2.0402,2.0394,2.0352,2.0396,2.04,2.0451,2.0342,2.0511,2.0518,2.0525,2.0636,2.0654,2.0669,0,0,0,0,0,2.0494,2.0563,2.053,2.0532,2.0527,2.0546,2.0545,2.0495,2.0447,2.0477,2.0449,2.0395,2.0444,2.0402,2.0405,2.0457,2.0507,2.0516,2.0524,2.0629,2.065,2.0669,0,0,0,0,0,0,2.0606,2.0557,2.052,2.0578,2.0568,2.0528,2.0565,2.0519,2.0522,2.0512,2.0449,2.0444,2.0497,2.0481,2.0435,2.0536,2.0467,2.0477,2.0545,2.0565,2.0581,2.0584,2.0343,0,0,0,0,0,2.0637,2.0657,2.0613,2.0669,2.0665,2.0616,2.0623,2.0585,2.0571,2.0566,2.054,2.053,2.0543,2.0553,2.0562,2.0633,2.0626,2.0671,2.0687,2.0701,2.071,2.0748,2.0768,2.0557,2.0557,2.0557,0,0,2.0702,2.0678,2.0694,2.069,2.0677,2.07,2.0613,2.064,2.0656,2.057,2.061,2.0592,2.0576,2.0634,2.0659,2.0623,2.0767,2.0712,2.0723,2.0725,2.0759,2.0779,2.0797,2.0563,2.0562,2.0561,0,0,2.0832,2.0815,2.0861,2.085,2.0831,2.0798,2.081,2.0777,2.0762,2.0801,2.0737,2.0756,2.078,2.0771,2.0771,2.09,2.0851,2.0905,2.0991,2.1029,2.1045,2.106,2.1107,2.1124,2.0914,2.0914,2.0914,0,2.0916,2.0946,2.089,2.0921,2.0923,2.0846,2.0892,2.0884,2.087,2.0873,2.0833,2.0862,2.0845,2.0902,2.0933,2.0935,2.0947,2.0908,2.1047,2.1061,2.1074,2.1118,2.1136,2.0921,2.092,2.0919,2.0919,0,2.105,2.1072,2.1111,2.11,2.1105,2.1144,2.1095,2.1107,2.107,2.1042,2.1084,2.1062,2.1066,2.1077,2.104,2.1128,2.1107,2.1058,2.0987,2.1102,2.1142,2.1159,2.0931,2.0928,2.0926,2.0924,0,0,2.1249,2.1206,2.1222,2.1216,2.119,2.1207,2.1243,2.1247,2.126,2.1253,2.1283,2.1305,2.126,2.1259,2.1221,2.1254,2.1359,2.1201,2.12,2.1232,2.1457,2.1495,2.1515,2.1327,2.133,2.1332,2.1459,0,2.1372,2.1431,2.1382,2.145,2.1471,2.1399,2.1431,2.142,2.1395,2.141,2.1383,2.14,2.1339,2.1338,2.1367,2.134,2.1404,2.133,2.1355,2.1357,2.1362,2.1536,2.1576,2.1696,2.1474,2.1477,2.1479,0,2.1524,2.1525,2.1595,2.1566,2.1573,2.1603,2.1603,2.1618,2.1604,2.1584,2.1584,2.1537,2.1572,2.1503,2.1551,2.1502,2.1509,2.1498,2.1501,2.1502,2.1425,2.1543,2.1733,2.1752,2.1503,2.1501,2.15,0,2.1664,2.1682,2.1726,2.1723,2.1691,2.1714,2.1701,2.1684,2.169,2.1691,2.1694,2.17,2.1703,2.1709,2.1665,2.1618,2.172,2.1646,2.1705,2.1706,2.173,2.1729,2.1925,2.1734,2.1733,2.1733,2.1733,0,2.1807,2.1853,2.1788,2.1816,2.1866,2.1811,2.1862,2.1842,2.1828,2.1852,2.179,2.1813,2.1754,2.1772,2.1738,2.1784,2.1786,2.1771,2.1762,2.1777,2.178,2.1782,2.1773,2.1738,2.1737,2.1736,2.1735,0,2.1971,2.1929,2.1973,2.194,2.1932,2.1971,2.1942,2.1967,2.1939,2.197,2.1974,2.193,2.1948,2.1905,2.1916,2.1894,2.196,2.1937,2.1965,2.1958,2.202,2.2015,2.2225,2.225,2.2042,2.2044,2.2046,0,2.2066,2.2099,2.207,2.2081,2.2072,2.209,2.2096,2.2044,2.2053,2.2041,2.2068,2.208,2.2088,2.212,2.209,2.2099,2.2076,2.2149,2.2077,2.2092,2.2079,2.2078,2.2081,2.2164,2.2167,2.2169,2.2171,0,2.2239,2.2217,2.2227,2.2232,2.2241,2.2241,2.2238,2.2251,2.2195,2.2208,2.2226,2.2232,2.2244,2.2258,2.2261,2.2249,2.2202,2.2194,2.2208,2.2224,2.2239,2.2233,2.2006,2.2189,2.2187,2.2186,2.2185,2.2184,2.2371,2.2399,2.2382,2.2397,2.2389,2.2387,2.2409,2.2384,2.2398,2.2403,2.2372,2.2397,2.2384,2.2382,2.2376,2.2395,2.2362,2.2383,2.2388,2.2394,2.2405,2.2236,2.2396,2.2395,2.2394,2.2394,2.2393,0,2.2542,2.2528,2.2542,2.2539,2.2551,2.2505,2.2499,2.2513,2.2535,2.2527,2.2536,2.2557,2.2571,2.2542,2.2552,2.2573,2.2552,2.2577,2.2576,2.2574,2.2433,2.242,2.2595,2.2595,2.2595,2.2595,2.2595,2.2595,2.2632,2.2676,2.2653,2.2694,2.2679,2.2703,2.2704,2.2703,2.2696,2.2723,2.2734,2.2715,2.2699,2.2707,2.2718,2.2709,2.2716,2.275,2.2734,2.2603,2.2584,2.2565,2.2553,2.2752,2.2752,2.2873,2.2874,2.2875]},{"header":{"parameterUnit":"m.s-1","parameterCategory":1,"la1":30.2991,"la2":30.254,"lo1":-89.0895,"lo2":-89.0444,"dy":0.0017,"dx":0.0017,"nx":28,"ny":28,"refTime":"2023-08-01T21:00:00:Z","depth":0,"parameterNumber":3,"parameterNumberName":"V-component_of_WINDS"},"data":[0,0,0,0,0,0,0,0,0,0,0,0,0,0,0,0,0,0,0,0,0,0,0,0,0,0,0,0,0,0,0,0,0,0,0,0,0,0,0,0,0,0,0,0,0,0,0,0,0,0,0,0,0,0,0,0,0,0,-2.063,-2.0631,0,-2.0702,-2.0703,-2.0704,-2.0689,-2.0687,-2.0686,-2.0685,-2.0758,-2.0761,-2.0764,0,0,0,0,0,0,0,0,0,0,0,0,0,-2.0478,-2.0481,-2.063,-2.0631,-2.0632,-2.0702,-2.0703,-2.0704,-2.0689,-2.0687,-2.0686,-2.0684,-2.0757,-2.076,-2.0764,0,0,0,0,0,0,0,0,0,0,0,0,0,-2.0547,-2.0482,-2.063,-2.0633,-2.0634,-2.0702,-2.0703,-2.0704,-2.0689,-2.0687,-2.0685,-2.0683,-2.0755,-2.076,-2.0765,-2.0835,0,0,-2.0779,-2.0782,0,0,0,0,0,0,0,0,-2.0543,-2.0552,-2.0631,-2.0633,-2.0634,-2.0684,-2.0676,-2.0748,-2.069,-2.0668,-2.0685,-2.0682,-2.0735,-2.0741,-2.0759,-2.0838,-2.0841,-2.078,-2.0783,-2.0785,-2.0786,0,0,0,0,0,0,0,-2.0538,-2.0549,-2.0659,-2.0633,-2.0634,-2.063,-2.0638,-2.069,-2.0712,-2.067,-2.0669,-2.0678,-2.0735,-2.0755,-2.0761,-2.0842,-2.078,-2.0784,-2.0787,-2.0789,-2.0982,-2.0985,0,0,0,0,0,0,-2.0532,-2.0545,-2.0656,-2.0661,-2.0583,-2.0635,-2.0643,-2.067,-2.0711,-2.0716,-2.0679,-2.0677,-2.0747,-2.0755,-2.0763,-2.0848,-2.0785,-2.0789,-2.0792,-2.098,-2.0983,-2.0985,0,0,0,0,0,0,-2.0529,-2.0543,-2.0653,-2.0603,-2.0617,-2.0639,-2.067,-2.0673,-2.0692,-2.0718,-2.0722,-2.0695,-2.0746,-2.0757,-2.0817,-2.085,-2.0791,-2.0796,-2.0978,-2.0981,-2.0984,-2.1018,0,0,0,0,0,0,-2.0525,-2.0541,-2.0568,-2.0604,-2.0619,-2.0706,-2.0672,-2.0676,-2.07,-2.0698,-2.0734,-2.0738,-2.0745,-2.081,-2.0822,-2.0856,-2.08,-2.0975,-2.0979,-2.0983,-2.1014,-2.1022,-2.1029,0,0,0,0,0,-2.052,-2.0575,-2.057,-2.0583,-2.0654,-2.0708,-2.0717,-2.0724,-2.0703,-2.073,-2.0747,-2.0737,-2.0845,-2.0816,-2.083,-2.0866,-2.0973,-2.0978,-2.0983,-2.1011,-2.1021,-2.1029,0,0,0,0,0,0,-2.0542,-2.0579,-2.0574,-2.0642,-2.0672,-2.0706,-2.074,-2.0735,-2.0771,-2.0767,-2.0774,-2.0782,-2.0844,-2.0861,-2.0828,-2.0936,-2.0906,-2.0914,-2.0922,-2.0932,-2.094,-2.0934,-2.0804,0,0,0,0,0,-2.0555,-2.0597,-2.0627,-2.0684,-2.0699,-2.0717,-2.0741,-2.0744,-2.0775,-2.0788,-2.0809,-2.084,-2.0881,-2.0907,-2.0946,-2.1016,-2.1024,-2.1048,-2.1055,-2.1061,-2.1068,-2.1107,-2.1118,-2.1002,-2.1002,-2.1002,0,0,-2.0582,-2.0608,-2.0634,-2.0689,-2.0713,-2.0756,-2.0728,-2.0774,-2.0806,-2.0795,-2.0854,-2.087,-2.0905,-2.0971,-2.1001,-2.0987,-2.1102,-2.1068,-2.1073,-2.1076,-2.1114,-2.1125,-2.1134,-2.1006,-2.1005,-2.1005,0,0,-2.0654,-2.0677,-2.0728,-2.0752,-2.0788,-2.08,-2.0812,-2.0846,-2.0857,-2.0916,-2.0909,-2.0947,-2.1017,-2.1042,-2.1064,-2.1145,-2.1137,-2.1158,-2.1197,-2.1235,-2.1244,-2.1252,-2.1282,-2.1293,-2.1164,-2.1164,-2.1164,0,-2.0683,-2.0748,-2.0754,-2.0802,-2.0827,-2.0819,-2.087,-2.0893,-2.094,-2.0957,-2.0941,-2.1029,-2.1051,-2.1123,-2.1144,-2.1161,-2.1176,-2.1154,-2.1242,-2.1251,-2.1258,-2.1287,-2.1298,-2.1167,-2.1166,-2.1166,-2.1166,0,-2.0782,-2.0827,-2.0863,-2.0909,-2.0938,-2.0987,-2.1001,-2.103,-2.103,-2.1044,-2.1104,-2.1131,-2.1176,-2.1193,-2.1194,-2.1265,-2.1256,-2.1241,-2.1211,-2.1272,-2.1298,-2.1309,-2.117,-2.1169,-2.1168,-2.1168,0,0,-2.0869,-2.0919,-2.0932,-2.0953,-2.0993,-2.1028,-2.1077,-2.1121,-2.1145,-2.1178,-2.1219,-2.1279,-2.1265,-2.129,-2.1294,-2.1327,-2.1391,-2.1308,-2.1309,-2.1323,-2.1472,-2.1483,-2.1496,-2.1386,-2.1388,-2.1389,-2.1469,0,-2.0945,-2.1031,-2.1039,-2.1117,-2.1159,-2.1152,-2.1194,-2.1223,-2.1237,-2.1275,-2.129,-2.1332,-2.1311,-2.1326,-2.1359,-2.1376,-2.1421,-2.137,-2.1424,-2.1426,-2.1416,-2.151,-2.1522,-2.1596,-2.148,-2.1482,-2.1483,0,-2.1044,-2.1081,-2.1163,-2.1197,-2.1215,-2.1253,-2.1294,-2.133,-2.1363,-2.137,-2.1399,-2.1398,-2.1448,-2.1416,-2.1486,-2.1451,-2.1474,-2.1486,-2.1489,-2.1495,-2.1459,-2.1518,-2.162,-2.1631,-2.1499,-2.1498,-2.1497,0,-2.1101,-2.117,-2.1228,-2.1247,-2.1288,-2.1315,-2.1333,-2.1364,-2.139,-2.1426,-2.1443,-2.1484,-2.1507,-2.1539,-2.1549,-2.1525,-2.1619,-2.1587,-2.1627,-2.1627,-2.1647,-2.1646,-2.1754,-2.1661,-2.1661,-2.166,-2.166,0,-2.1185,-2.1235,-2.1254,-2.129,-2.1347,-2.1355,-2.1411,-2.1428,-2.1455,-2.1494,-2.1491,-2.1527,-2.1538,-2.1577,-2.1585,-2.1642,-2.1652,-2.166,-2.1662,-2.1661,-2.166,-2.1676,-2.1671,-2.1663,-2.1663,-2.1662,-2.1662,0,-2.1257,-2.1272,-2.1335,-2.1369,-2.1379,-2.1419,-2.1449,-2.1483,-2.1496,-2.1546,-2.1558,-2.1579,-2.1624,-2.1638,-2.1692,-2.1698,-2.1765,-2.1761,-2.1754,-2.1754,-2.1793,-2.1789,-2.1915,-2.1933,-2.1828,-2.1829,-2.183,0,-2.131,-2.1349,-2.1387,-2.1414,-2.1433,-2.1475,-2.1502,-2.1512,-2.154,-2.158,-2.161,-2.1655,-2.1691,-2.1764,-2.1784,-2.1826,-2.1824,-2.1866,-2.183,-2.1828,-2.1826,-2.1823,-2.1828,-2.1872,-2.1873,-2.1874,-2.1875,0,-2.1402,-2.1408,-2.1447,-2.1489,-2.1521,-2.1554,-2.1586,-2.1607,-2.1622,-2.1653,-2.17,-2.1728,-2.1784,-2.1829,-2.1872,-2.1891,-2.1886,-2.1886,-2.1897,-2.1897,-2.1891,-2.1896,-2.1772,-2.1883,-2.1882,-2.1882,-2.1881,-2.1881,-2.1467,-2.1501,-2.1534,-2.1578,-2.1603,-2.1633,-2.1667,-2.1685,-2.1724,-2.1771,-2.1774,-2.1825,-2.1857,-2.1914,-2.1935,-2.1975,-2.1963,-2.1979,-2.1983,-2.1987,-2.1991,-2.1885,-2.1982,-2.1982,-2.1982,-2.1982,-2.1982,0,-2.1559,-2.158,-2.162,-2.1665,-2.17,-2.1692,-2.1727,-2.1757,-2.1801,-2.1832,-2.1868,-2.1922,-2.1966,-2.1989,-2.2033,-2.206,-2.2059,-2.2071,-2.207,-2.2074,-2.1999,-2.1985,-2.2072,-2.2072,-2.2072,-2.2072,-2.2072,-2.2072,-2.1611,-2.167,-2.1679,-2.175,-2.177,-2.182,-2.1841,-2.1869,-2.1893,-2.1954,-2.199,-2.2006,-2.2034,-2.2079,-2.2119,-2.2125,-2.2141,-2.2155,-2.216,-2.2089,-2.2079,-2.2071,-2.2058,-2.2158,-2.2159,-2.2232,-2.2233,-2.2233]}]]